Temperature
-0 -0 0 0 0 0 0 0 0 0 1 1 1 1 1 1 1 1 1 2 2 2 2 2 2 2 2 2 2 2 1 1 1 1 1 2 2 2 2 2 2 2 2
-1 -1 -0 -0 -0 -0 -0 -0 -0 0 0 0 0 0 0 1 1 1 1 1 1 1 1 1 1 1 1 1 1 1 1 1 1 1 1 1 1 1 1 1 1 2 2
-1 -1 -1 -1 -1 -1 -1 -1 -1 -1 -0 -0 -0 -0 -0 -0 -0 0 0 0 0 0 0 0 0 0 0 0 0 0 0 0 0 0 0 0 0 1 1 1 1 1 1
-2 -2 -2 -2 -1 -1 -1 -1 -1 -1 -1 -1 -1 -1 -1 -1 -1 -1 -1 -1 -1 -1 -0 -1 -1 -0 -0 -0 -1 -1 -0 -0 -1 -1 -1 -0 -0 -0 -0 -0 -0 0 0
-2 -2 -2 -2 -2 -2 -2 -2 -2 -2 -1 -1 -1 -1 -1 -1 -1 -1 -1 -1 -1 -1 -1 -1 -1 -1 -1 -1 -1 -1 -1 -1 -1 -1 -1 -1 -1 -1 -1 -1 -1 -1 -1
-3 -2 -2 -2 -2 -2 -2 -2 -2 -2 -2 -2 -2 -2 -2 -2 -2 -2 -2 -2 -2 -2 -2 -2 -2 -2 -2 -2 -2 -2 -2 -2 -2 -2 -2 -2 -2 -2 -2 -2 -2 -2 -2
-3 -3 -3 -3 -3 -3 -3 -3 -3 -3 -3 -3 -3 -3 -3 -2 -2 -2 -2 -3 -3 -3 -3 -3 -3 -3 -3 -3 -2 -2 -2 -2 -2 -2 -2 -2 -2 -2 -2 -2 -2 -2 -3
-4 -3 -3 -3 -3 -3 -3 -3 -3 -3 -3 -3 -3 -3 -3 -3 -3 -3 -3 -3 -3 -3 -3 -3 -3 -3 -3 -3 -3 -3 -3 -3 -3 -3 -3 -3 -3 -3 -3 -3 -3 -3 -3
-4 -4 -4 -4 -4 -4 -4 -4 -4 -4 -4 -4 -4 -4 -4 -4 -4 -3 -4 -4 -4 -4 -4 -4 -4 -4 -4 -4 -4 -4 -4 -4 -3 -3 -3 -3 -3 -3 -3 -4 -4 -4 -4
-5 -5 -5 -5 -5 -5 -5 -5 -5 -5 -5 -5 -5 -5 -5 -4 -4 -4 -4 -5 -5 -5 -5 -5 -4 -4 -4 -4 -4 -4 -4 -4 -4 -4 -4 -4 -4 -4 -4 -4 -4 -4 -5
-6 -6 -6 -6 -6 -6 -6 -6 -6 -6 -6 -6 -6 -6 -5 -5 -5 -5 -5 -5 -5 -5 -5 -5 -5 -5 -5 -5 -5 -5 -5 -5 -5 -5 -5 -4 -4 -4 -4 -4 -5 -5 -5
-6 -6 -6 -6 -6 -6 -7 -7 -7 -7 -7 -7 -7 -6 -6 -6 -6 -6 -6 -6 -6 -6 -6 -6 -6 -6 -5 -5 -5 -5 -5 -5 -5 -5 -5 -5 -5 -5 -5 -5 -5 -5 -5
-7 -7 -7 -7 -7 -7 -7 -7 -7 -7 -8 -7 -7 -7 -7 -7 -7 -7 -7 -7 -7 -7 -7 -6 -6 -6 -6 -6 -6 -6 -6 -6 -6 -6 -6 -6 -6 -6 -5 -5 -5 -5 -5
-7 -7 -7 -8 -8 -8 -8 -8 -8 -8 -8 -8 -8 -8 -8 -7 -7 -7 -7 -7 -7 -7 -7 -7 -7 -7 -7 -7 -7 -7 -6 -6 -6 -6 -6 -6 -6 -6 -6 -6 -6 -6 -6
-8 -8 -8 -8 -8 -8 -8 -8 -8 -8 -8 -8 -8 -8 -8 -8 -8 -8 -8 -8 -8 -7 -8 -7 -7 -7 -7 -7 -7 -7 -7 -7 -7 -7 -7 -7 -7 -7 -7 -7 -7 -7 -7
-9 -9 -9 -9 -9 -9 -9 -9 -9 -9 -9 -9 -9 -9 -9 -9 -9 -8 -8 -8 -8 -8 -8 -8 -8 -8 -8 -8 -8 -8 -8 -8 -8 -8 -8 -8 -7 -7 -8 -8 -8 -8 -8
-9 -9 -9 -9 -9 -10 -10 -10 -9 -9 -9 -9 -9 -9 -9 -9 -9 -9 -9 -9 -9 -9 -9 -8 -9 -8 -8 -8 -8 -8 -8 -8 -8 -8 -8 -8 -8 -8 -8 -8 -8 -8 -9
-10 -10 -10 -10 -10 -10 -10 -10 -10 -10 -10 -10 -10 -10 -10 -10 -9 -9 -9 -9 -9 -9 -9 -9 -9 -9 -9 -9 -9 -9 -8 -8 -8 -8 -8 -8 -8 -9 -9 -9 -9 -9 -9
-10 -10 -10 -10 -10 -11 -11 -11 -11 -11 -11 -10 -10 -10 -10 -10 -10 -10 -10 -10 -10 -10 -10 -10 -9 -9 -9 -9 -9 -9 -9 -9 -9 -9 -9 -9 -9 -9 -9 -9 -9 -9 -9
-11 -11 -11 -11 -11 -11 -11 -11 -11 -11 -11 -11 -11 -11 -11 -11 -11 -11 -11 -11 -10 -10 -10 -10 -10 -10 -10 -10 -10 -10 -10 -9 -9 -9 -9 -9 -9 -9 -10 -10 -10 -10 -10
-11 -11 -11 -11 -11 -11 -11 -12 -12 -12 -12 -12 -12 -12 -12 -12 -11 -11 -11 -11 -11 -11 -11 -11 -11 -10 -10 -10 -10 -10 -10 -10 -10 -10 -10 -10 -10 -10 -10 -10 -10 -10 -10
-11 -11 -11 -12 -12 -12 -12 -12 -12 -12 -12 -12 -12 -12 -12 -12 -12 -12 -12 -12 -12 -11 -11 -11 -11 -11 -11 -11 -11 -11 -11 -10 -10 -10 -10 -10 -10 -10 -10 -11 -11 -11 -11
-12 -12 -12 -12 -12 -12 -12 -12 -12 -12 -12 -12 -12 -12 -12 -12 -12 -12 -12 -12 -12 -12 -12 -12 -12 -12 -11 -11 -11 -11 -11 -11 -11 -11 -11 -11 -11 -11 -11 -11 -11 -11 -11
-12 -12 -12 -12 -12 -12 -12 -13 -13 -13 -13 -13 -13 -13 -13 -13 -13 -12 -12 -12 -12 -12 -12 -12 -12 -12 -12 -12 -12 -11 -11 -11 -11 -11 -11 -11 -11 -11 -11 -11 -11 -12 -12
-12 -12 -12 -12 -12 -13 -13 -13 -13 -13 -13 -13 -13 -13 -13 -13 -13 -13 -13 -13 -13 -13 -13 -12 -12 -12 -12 -12 -12 -12 -12 -12 -12 -12 -12 -12 -12 -12 -12 -12 -12 -12 -12
-12 -12 -12 -13 -13 -13 -13 -13 -13 -13 -13 -13 -13 -13 -13 -13 -13 -13 -13 -13 -13 -13 -13 -13 -13 -13 -12 -12 -12 -12 -12 -12 -12 -12 -12 -12 -12 -12 -12 -12 -12 -12 -12
Wind_Speed
5 5 5 5 5 5 6 7 7 8 8 8 8 8 8 8 7 7 7 7 8 7 7 7 7 6 5 5 5 5 5 5 6 5 3 3 3 4 4 5 5 6 7
5 5 5 5 5 6 6 7 7 8 8 8 8 8 8 8 8 8 8 8 9 9 9 8 8 6 7 6 5 6 6 6 6 6 5 4 5 5 5 5 5 6 6
5 5 5 6 6 6 7 6 6 7 7 7 8 8 8 8 8 8 9 9 9 9 9 9 9 8 8 7 7 6 5 5 5 6 6 4 4 4 4 4 5 5 5
5 5 6 6 6 6 6 6 6 6 6 7 7 8 8 8 8 8 9 9 9 9 9 9 9 10 9 9 7 7 6 6 6 6 5 5 4 4 4 4 4 4 4
5 5 6 6 6 5 5 5 5 5 6 6 6 7 7 7 7 8 8 9 9 9 9 9 9 10 11 9 8 7 7 7 6 6 6 5 5 4 5 4 5 4 4
5 6 5 5 5 5 5 5 4 5 5 5 6 6 7 7 9 10 9 8 8 9 9 9 9 10 11 12 12 12 10 9 8 7 7 7 8 6 5 5 4 4 5
5 5 4 4 5 4 4 4 4 4 4 5 5 6 7 7 9 10 10 7 8 9 9 9 8 8 10 9 10 11 12 12 12 10 10 10 9 7 7 7 7 7 6
4 4 4 4 4 4 3 4 4 4 4 5 5 6 6 7 7 8 9 7 7 8 8 9 9 8 8 9 8 8 9 9 10 10 9 9 9 8 8 8 7 6 5
4 5 5 4 4 3 4 4 4 4 4 5 5 6 6 6 7 7 7 5 6 7 8 8 9 9 10 10 8 8 8 8 9 11 12 12 12 11 9 6 6 6 6
5 5 5 4 4 4 4 4 4 4 4 4 4 5 5 5 6 6 7 4 5 6 6 7 9 10 10 10 9 8 9 9 7 7 8 9 10 10 11 9 8 7 6
5 5 5 4 4 4 4 4 4 4 4 4 4 4 4 5 5 6 6 4 4 5 5 5 6 9 10 10 9 8 10 8 6 7 7 6 6 6 7 8 8 7 7
5 5 5 5 4 3 3 3 3 3 3 3 3 3 3 4 4 6 7 6 5 5 5 5 6 8 9 10 8 8 9 7 5 6 6 6 5 5 5 5 6 6 7
5 5 5 5 4 3 3 3 3 3 3 3 3 3 3 3 4 5 6 6 7 5 5 6 7 8 8 7 8 8 7 5 5 5 6 6 5 5 4 3 3 3 4
4 5 4 4 4 3 3 3 3 3 3 3 3 4 3 3 3 3 4 4 5 5 5 5 6 6 6 6 6 5 5 5 5 5 5 4 3 3 4 3 3 3 3
4 4 4 4 3 3 3 3 3 3 4 4 4 4 4 4 4 5 4 4 4 4 3 3 3 3 4 4 4 4 4 4 5 4 4 4 3 4 3 3 3 3 4
4 4 3 3 3 3 3 3 3 4 4 5 5 4 4 5 5 5 5 5 5 4 3 3 4 4 4 4 4 4 4 4 5 4 4 4 4 4 3 3 3 4 4
4 4 3 3 3 3 2 3 3 4 4 4 4 4 4 5 4 4 4 4 3 2 2 3 3 3 4 4 4 4 4 4 4 4 4 4 4 4 4 4 4 4 4
4 4 4 3 3 3 3 3 3 3 3 3 4 5 5 4 4 4 4 2 2 2 2 3 3 3 3 3 3 4 4 4 4 4 4 4 4 4 4 4 4 5 4
4 3 3 3 2 2 2 2 2 3 3 3 3 4 4 4 4 4 2 1 2 2 3 3 3 3 3 3 3 3 4 4 4 4 4 5 4 5 5 5 4 5 5
3 4 3 2 2 2 2 2 2 2 3 2 3 3 3 3 2 2 2 2 2 2 3 3 3 3 3 3 3 3 3 3 4 4 4 4 4 4 4 5 5 4 4
3 3 3 2 2 2 2 2 2 2 3 3 3 4 4 2 2 2 2 2 3 3 3 3 3 3 3 3 3 3 3 3 3 3 3 4 4 4 4 4 4 4 4
2 2 2 2 2 2 2 2 2 2 3 3 3 4 4 2 2 2 2 3 3 3 3 3 3 3 3 3 3 3 3 3 3 3 3 3 3 4 4 4 3 3 3
2 2 2 2 2 2 2 2 2 2 3 3 3 3 2 2 2 3 3 3 3 3 3 3 3 3 3 3 3 3 3 3 3 3 3 3 3 3 3 4 4 4 4
2 2 2 2 2 2 2 2 2 2 2 3 2 2 2 2 3 3 3 3 3 4 4 3 3 4 4 4 4 4 4 4 4 3 4 3 3 3 3 4 4 5 4
2 2 2 2 2 2 2 2 2 2 2 2 2 2 3 3 3 3 3 3 3 3 4 4 4 4 4 4 4 4 4 5 5 4 3 3 3 3 3 4 3 3 4
1 2 2 2 2 2 2 2 2 2 2 2 2 3 3 3 3 3 3 3 3 3 4 4 4 4 4 5 5 5 5 5 5 5 3 2 3 3 3 3 4 3 4
Wind_Direction
273 266 258 255 250 247 240 238 235 234 232 229 224 223 223 223 223 221 225 226 222 223 225 226 229 230 230 233 231 226 226 223 240 255 266 257 240 236 235 233 228 224 220
279 270 262 259 253 248 246 245 239 235 233 232 227 223 222 222 222 223 227 229 224 223 223 224 228 227 229 231 233 227 225 224 231 247 257 254 251 237 235 233 230 228 225
282 272 266 261 256 252 252 249 243 236 233 232 228 224 222 222 223 225 228 229 227 227 227 226 228 227 230 230 229 228 229 230 229 237 249 252 256 241 233 235 234 232 229
284 274 266 261 258 256 254 251 246 238 233 232 231 230 227 224 225 226 229 229 228 230 231 232 231 229 230 231 226 230 229 226 225 230 239 244 246 244 233 231 241 240 244
280 275 268 265 261 258 255 253 248 245 239 236 235 235 232 228 226 225 230 230 229 231 232 234 234 233 235 231 228 228 225 223 223 226 233 241 241 233 234 236 243 256 259
280 276 273 267 261 256 255 254 251 250 248 243 239 239 239 236 229 228 232 234 232 231 234 236 237 236 234 232 232 232 230 225 224 227 233 235 239 241 240 236 238 250 257
289 285 278 267 261 260 258 254 251 252 250 249 249 244 245 244 236 232 232 236 238 236 235 236 237 234 232 233 236 237 238 238 237 233 235 236 238 234 233 236 237 242 253
297 298 292 283 273 268 261 254 257 257 253 253 253 252 250 249 242 239 235 237 239 236 235 233 234 233 230 232 235 237 238 238 239 239 241 243 243 240 233 236 241 251 266
303 303 299 290 280 275 269 265 264 258 257 256 256 252 249 252 246 243 241 239 240 242 238 235 232 234 233 231 233 236 242 247 250 246 247 249 249 241 233 228 225 229 250
306 305 303 294 280 273 269 269 266 258 256 258 260 257 252 254 252 248 244 240 242 246 244 237 235 237 237 232 229 231 239 244 242 245 250 250 246 238 229 222 220 226 241
309 308 304 298 286 278 273 268 265 260 260 261 263 267 262 259 257 249 245 243 242 246 247 244 241 241 245 243 238 236 243 247 244 240 242 244 242 237 231 228 227 228 235
313 309 306 302 295 286 279 275 269 263 258 264 269 276 275 269 264 253 246 248 253 248 250 250 248 247 248 248 246 244 248 247 243 238 239 238 238 240 238 237 233 237 243
312 309 308 305 298 288 276 272 268 259 254 258 262 267 277 279 275 270 259 255 259 257 255 254 255 253 253 249 247 246 245 242 238 236 237 240 240 241 238 239 237 237 252
306 308 308 305 302 295 279 267 258 254 253 255 256 261 270 272 273 273 270 264 257 260 262 253 251 254 251 250 246 243 240 239 238 241 241 243 237 229 231 229 233 228 251
304 303 303 299 296 295 286 277 268 263 254 254 260 264 265 267 270 274 275 269 259 249 258 257 253 248 240 239 239 238 236 237 240 242 240 239 234 230 233 226 230 237 244
302 305 305 303 301 299 300 303 299 288 289 278 278 279 279 285 297 281 277 280 273 260 244 248 250 245 242 240 238 239 239 236 237 237 229 228 231 232 235 231 226 234 240
291 296 297 295 296 298 298 298 306 316 316 315 311 307 307 312 310 301 284 276 272 241 235 247 254 256 250 245 242 240 242 241 233 227 227 229 230 231 227 227 228 233 240
291 293 293 290 293 293 290 290 293 298 306 309 316 320 320 320 318 317 306 285 277 262 254 255 261 264 265 258 250 248 248 241 231 230 233 232 228 229 229 229 230 234 240
292 294 292 289 290 289 288 288 292 297 298 303 316 320 320 319 321 329 325 281 262 262 266 266 264 262 260 259 260 260 253 245 240 236 235 232 226 225 229 231 235 236 242
293 296 294 287 286 286 284 285 288 292 298 303 308 314 317 317 311 315 306 288 274 271 272 272 272 270 265 261 260 258 258 252 239 235 233 231 226 225 227 229 230 234 242
292 293 290 282 277 279 279 279 281 284 289 294 298 309 320 300 292 289 285 283 280 277 275 275 275 276 273 269 261 254 254 254 246 244 238 230 222 220 222 225 230 234 237
282 284 276 270 274 274 277 277 275 277 283 289 297 306 312 302 290 285 284 283 282 281 280 275 272 273 275 274 266 257 252 254 253 243 238 232 221 214 215 220 224 228 226
277 277 270 266 268 272 277 276 275 277 281 285 291 297 300 294 291 289 288 288 289 290 288 281 278 281 287 284 277 263 254 253 252 242 230 225 221 214 213 216 216 220 223
272 266 264 268 269 264 262 269 272 275 279 282 285 287 289 288 287 291 294 295 295 294 294 289 281 283 290 291 289 285 275 271 269 252 232 222 221 217 215 214 218 217 221
273 273 274 272 268 262 262 265 268 272 274 277 281 283 286 288 290 294 295 296 297 295 296 294 290 288 288 289 288 286 284 281 276 266 236 216 215 213 209 211 211 213 215
295 287 281 276 269 264 265 268 270 274 277 279 280 281 284 287 290 293 295 295 296 295 296 296 293 290 290 288 286 285 285 282 277 271 252 221 208 209 208 210 208 211 214
Height
1471 1472 1472 1472 1472 1473 1474 1475 1476 1477 1478 1479 1480 1481 1483 1484 1485 1486 1487 1489 1490 1491 1493 1494 1496 1497 1498 1499 1501 1502 1503 1504 1503 1503 1504 1505 1505 1506 1507 1507 1508 1508 1508
1468 1467 1467 1467 1467 1468 1469 1470 1471 1472 1473 1473 1474 1475 1477 1478 1479 1480 1482 1483 1484 1485 1487 1488 1489 1491 1492 1493 1495 1496 1497 1498 1499 1498 1499 1500 1501 1501 1502 1502 1503 1503 1503
1463 1463 1462 1462 1462 1463 1464 1465 1465 1466 1467 1467 1468 1469 1470 1472 1473 1474 1476 1476 1478 1479 1480 1481 1483 1485 1486 1487 1489 1490 1491 1492 1493 1493 1493 1494 1495 1496 1496 1497 1497 1498 1498
1459 1458 1458 1458 1457 1457 1458 1459 1459 1460 1461 1462 1463 1464 1465 1466 1467 1468 1469 1470 1471 1472 1474 1475 1476 1478 1480 1481 1482 1483 1485 1486 1487 1488 1488 1489 1490 1490 1491 1491 1492 1493 1493
1455 1454 1453 1453 1452 1452 1452 1453 1454 1454 1455 1456 1457 1458 1459 1460 1461 1462 1463 1464 1465 1466 1467 1468 1470 1471 1473 1475 1476 1477 1479 1480 1481 1482 1482 1483 1484 1484 1485 1486 1486 1486 1487
1450 1448 1448 1448 1447 1447 1447 1448 1448 1449 1450 1450 1451 1452 1453 1454 1455 1456 1457 1457 1458 1459 1460 1462 1463 1465 1466 1468 1469 1471 1473 1473 1475 1476 1476 1477 1477 1479 1480 1481 1481 1481 1481
1445 1443 1443 1443 1442 1442 1442 1443 1443 1444 1444 1445 1445 1446 1447 1448 1449 1450 1451 1452 1452 1453 1454 1455 1457 1458 1460 1461 1463 1465 1466 1467 1469 1470 1470 1470 1472 1473 1475 1475 1475 1475 1475
1441 1440 1439 1439 1438 1438 1438 1438 1439 1439 1439 1439 1440 1441 1442 1442 1443 1444 1445 1446 1447 1447 1448 1450 1451 1452 1454 1455 1457 1458 1459 1460 1462 1463 1464 1465 1467 1468 1469 1470 1470 1470 1470
1438 1436 1436 1435 1434 1434 1433 1434 1434 1434 1434 1434 1435 1435 1436 1437 1438 1439 1440 1440 1441 1442 1443 1444 1445 1446 1448 1450 1451 1451 1453 1454 1456 1457 1458 1459 1460 1462 1463 1464 1463 1464 1463
1435 1434 1432 1431 1430 1430 1430 1430 1430 1429 1429 1430 1430 1430 1431 1432 1433 1433 1434 1435 1435 1436 1437 1438 1439 1441 1442 1443 1444 1445 1446 1448 1450 1450 1451 1452 1454 1454 1455 1456 1457 1457 1457
1432 1431 1429 1428 1427 1427 1426 1426 1426 1426 1426 1426 1425 1426 1426 1427 1428 1428 1429 1430 1430 1431 1432 1433 1434 1435 1436 1438 1439 1439 1440 1442 1443 1444 1445 1445 1446 1447 1448 1449 1450 1450 1450
1429 1428 1426 1425 1424 1423 1423 1422 1422 1422 1422 1421 1421 1421 1422 1423 1423 1424 1425 1425 1426 1427 1427 1428 1429 1430 1431 1432 1433 1434 1436 1437 1437 1438 1438 1439 1440 1440 1441 1442 1443 1444 1444
1426 1424 1423 1422 1421 1420 1419 1419 1418 1418 1418 1418 1418 1417 1418 1419 1419 1420 1420 1421 1421 1422 1423 1423 1424 1425 1426 1427 1428 1429 1430 1431 1431 1432 1432 1433 1434 1435 1435 1436 1436 1437 1437
1423 1421 1420 1419 1417 1417 1416 1415 1415 1414 1414 1414 1414 1414 1414 1415 1415 1415 1416 1417 1417 1418 1418 1419 1420 1420 1421 1422 1423 1424 1424 1425 1426 1426 1427 1428 1428 1429 1429 1430 1430 1430 1430
1420 1418 1417 1416 1415 1413 1413 1412 1411 1411 1411 1411 1411 1411 1411 1410 1411 1412 1412 1412 1413 1413 1414 1415 1415 1415 1416 1416 1417 1418 1419 1420 1421 1421 1422 1422 1423 1424 1424 1424 1425 1425 1425
1417 1415 1414 1413 1412 1410 1409 1409 1408 1408 1408 1408 1407 1407 1407 1407 1408 1408 1408 1408 1409 1410 1410 1410 1410 1410 1411 1411 1412 1413 1414 1415 1415 1416 1417 1417 1418 1418 1418 1419 1420 1420 1420
1414 1413 1411 1410 1409 1408 1406 1405 1405 1405 1404 1404 1404 1404 1403 1403 1404 1404 1404 1405 1405 1406 1406 1406 1406 1406 1406 1407 1408 1408 1409 1410 1411 1411 1411 1412 1413 1413 1413 1414 1414 1415 1415
1411 1410 1409 1407 1406 1405 1404 1403 1402 1401 1400 1400 1400 1400 1400 1400 1400 1400 1400 1401 1401 1402 1401 1401 1402 1402 1402 1403 1403 1404 1404 1405 1406 1406 1407 1407 1408 1408 1409 1409 1409 1410 1410
1409 1407 1406 1405 1404 1403 1402 1401 1400 1399 1398 1397 1397 1397 1397 1397 1397 1397 1397 1397 1397 1397 1397 1398 1398 1398 1398 1399 1399 1400 1400 1400 1401 1401 1402 1403 1403 1404 1404 1404 1405 1405 1405
1406 1405 1403 1402 1401 1400 1399 1399 1398 1397 1396 1395 1394 1394 1394 1394 1393 1393 1393 1393 1393 1393 1394 1394 1394 1394 1394 1395 1395 1395 1396 1396 1396 1397 1397 1398 1398 1399 1399 1400 1400 1400 1400
1403 1402 1401 1400 1399 1398 1397 1396 1395 1394 1393 1392 1392 1392 1391 1391 1390 1390 1390 1390 1390 1390 1390 1390 1390 1390 1391 1391 1391 1391 1392 1392 1392 1393 1393 1393 1394 1394 1395 1396 1396 1396 1396
1400 1399 1398 1397 1396 1395 1394 1394 1393 1392 1391 1390 1389 1389 1389 1388 1388 1387 1387 1387 1387 1387 1387 1387 1387 1387 1388 1388 1388 1388 1388 1388 1388 1389 1389 1389 1390 1390 1391 1392 1392 1392 1392
1398 1397 1395 1394 1394 1393 1392 1391 1390 1389 1389 1388 1387 1387 1386 1386 1385 1385 1385 1385 1385 1385 1385 1385 1384 1384 1385 1385 1385 1385 1385 1385 1385 1385 1386 1386 1386 1387 1387 1388 1388 1388 1388
1396 1394 1393 1392 1391 1390 1389 1389 1388 1387 1386 1385 1385 1384 1384 1383 1383 1382 1382 1382 1382 1382 1382 1382 1382 1382 1382 1382 1382 1382 1382 1382 1382 1383 1383 1383 1383 1383 1384 1384 1384 1385 1385
1393 1392 1391 1390 1389 1388 1387 1386 1385 1385 1384 1383 1383 1382 1382 1381 1380 1380 1380 1380 1379 1379 1379 1379 1379 1379 1379 1379 1379 1379 1380 1380 1380 1380 1380 1380 1380 1380 1380 1381 1381 1381 1381
1391 1390 1389 1388 1387 1386 1385 1384 1383 1383 1382 1381 1381 1380 1379 1379 1378 1378 1378 1377 1377 1377 1377 1377 1377 1377 1377 1377 1377 1377 1377 1377 1377 1377 1378 1377 1377 1377 1377 1377 1378 1378 1378